Temperature
21 21 20 21 26 28 28 28 28 28 27 26 26 26 26 25 25 23 21 20 20 20 19 19 19 19 19 19 19 19 19 19 19 19 19 19 19 19 19 19 19 19 19 19 19 19 19 19 18
21 20 21 25 28 28 27 28 28 27 27 26 26 26 26 24 23 22 21 20 20 20 19 19 19 19 19 19 19 19 19 19 19 19 19 19 19 19 19 18 19 19 19 18 19 19 18 18 18
21 21 24 29 29 28 27 28 28 27 26 26 26 25 25 23 22 21 21 20 20 20 19 19 19 19 19 19 19 19 19 19 19 19 19 19 19 19 19 18 18 19 19 19 19 18 18 18 18
21 23 27 29 28 28 28 28 28 28 27 26 26 25 23 22 22 21 20 20 20 20 19 19 19 19 19 19 19 19 19 19 19 19 19 19 19 19 19 18 18 19 19 19 18 18 18 18 18
23 27 29 29 28 29 29 28 28 28 27 26 26 25 23 21 21 21 20 20 20 20 20 19 20 19 19 19 19 19 19 19 19 19 19 19 19 18 18 18 18 18 18 18 18 18 18 18 18
27 29 30 29 28 29 29 28 28 28 27 26 26 25 23 21 21 21 21 20 20 20 20 19 20 19 19 19 19 19 19 19 19 19 19 19 19 19 18 18 18 18 18 18 18 18 18 18 18
28 30 29 29 29 29 29 28 28 28 27 26 26 26 23 22 21 21 21 20 20 20 20 20 20 19 19 19 19 19 19 19 19 19 19 19 19 19 18 18 18 18 18 18 18 18 18 18 18
27 30 30 30 29 29 29 28 28 28 27 26 26 26 24 22 21 21 21 20 20 20 20 20 20 19 19 19 19 19 19 19 19 19 19 19 19 19 18 18 18 18 18 18 18 18 18 18 18
28 31 30 30 30 29 29 29 27 27 26 25 25 25 23 22 21 21 21 21 20 20 20 20 20 20 19 19 19 19 19 19 19 19 19 19 18 18 18 18 18 18 18 18 18 18 18 18 18
30 30 30 30 30 30 29 29 28 28 27 26 25 23 22 22 22 22 22 21 21 20 20 20 20 20 20 19 19 19 19 19 19 18 18 18 18 18 18 18 19 19 19 18 18 18 18 18 18
30 30 30 30 30 29 29 29 28 29 28 27 25 24 22 22 22 22 22 22 21 20 20 20 20 19 20 19 19 19 19 19 19 18 19 19 18 18 18 18 18 18 18 18 18 18 18 18 18
30 31 30 30 29 29 29 29 29 28 28 26 25 24 23 23 23 23 22 22 21 20 20 20 20 20 19 19 19 19 19 19 19 18 18 18 18 18 18 18 18 18 18 18 18 18 18 18 18
31 31 30 30 29 29 29 29 29 27 26 26 24 24 23 23 23 22 22 21 21 20 20 20 20 19 19 19 19 19 19 19 19 19 18 18 18 18 18 18 18 19 19 19 18 18 18 18 18
30 30 30 30 30 29 30 29 29 27 26 25 24 24 24 23 23 22 22 21 21 20 20 20 20 19 19 19 19 19 19 19 19 19 18 18 18 18 18 18 18 19 19 18 18 18 18 18 18
30 31 31 31 30 30 30 29 29 27 26 26 25 24 24 23 23 22 22 21 21 20 20 20 19 19 19 19 19 19 19 19 19 19 18 18 18 18 18 18 18 18 18 18 18 18 18 18 18
31 31 31 31 31 30 30 29 29 27 27 26 25 25 24 23 23 22 22 21 21 20 20 20 20 19 19 19 19 19 19 19 19 19 18 18 18 18 18 18 19 18 18 18 18 18 18 18 18
31 31 31 31 31 31 31 30 29 27 27 27 26 25 24 23 23 22 22 21 21 20 20 20 19 19 19 19 19 19 19 19 19 19 18 18 18 18 18 18 18 18 18 18 18 18 18 18 18
31 31 31 31 31 31 31 30 30 28 28 27 26 26 25 24 23 22 22 21 21 20 20 20 20 19 19 19 19 19 19 19 19 18 18 18 18 18 18 19 18 19 19 18 18 18 18 18 18
31 31 31 31 31 31 30 30 30 29 28 28 27 26 25 24 24 22 22 21 21 20 20 20 20 20 20 19 19 19 19 19 19 19 18 18 18 18 18 19 18 18 18 18 18 18 18 18 18
31 31 31 31 31 30 30 30 30 29 28 28 27 26 25 25 24 23 22 22 21 21 20 20 20 20 20 19 19 19 19 19 19 19 18 18 18 18 18 18 19 18 18 18 18 18 18 19 18
31 31 31 31 30 31 30 30 30 29 28 27 27 26 26 25 24 23 22 22 22 21 20 20 20 20 20 19 19 19 19 19 19 19 19 18 18 18 18 18 18 18 18 18 18 18 18 18 18
31 31 31 31 30 31 31 30 30 29 29 28 27 27 26 26 25 24 23 22 22 21 21 21 20 20 20 20 19 19 19 19 19 19 19 18 18 18 18 18 18 18 18 18 18 18 18 18 19
31 31 31 31 31 31 31 30 30 29 29 28 28 27 26 26 25 24 23 22 22 22 21 21 21 20 20 20 20 19 19 19 19 19 19 18 18 18 18 18 18 18 18 18 18 18 18 18 18
30 30 30 30 31 30 30 30 30 30 29 28 28 26 26 25 25 24 23 23 22 22 21 21 21 21 20 20 19 19 19 19 19 19 19 19 19 18 18 18 18 18 18 18 18 18 18 18 18
30 30 29 29 29 30 30 30 29 29 29 28 27 26 25 25 24 24 23 23 22 22 21 21 21 20 20 20 20 19 19 19 19 19 19 19 19 19 18 18 18 18 18 18 18 18 18 18 18
30 30 29 29 29 30 30 30 30 29 28 27 27 26 25 24 24 23 23 22 22 21 21 21 20 20 20 20 20 20 19 19 19 19 19 19 19 19 18 18 18 18 18 18 18 18 18 18 18
30 30 31 30 30 29 30 30 29 29 28 27 27 26 25 24 24 23 23 22 22 21 21 21 21 20 20 20 20 20 19 19 19 19 19 18 18 18 18 18 18 18 18 18 18 18 18 18 18
30 30 30 30 28 29 29 29 30 28 28 27 27 26 25 24 24 23 22 22 22 21 21 20 20 20 20 20 20 19 19 19 19 19 19 19 18 18 18 18 18 18 18 18 18 18 18 18 18
29 29 29 30 30 29 29 29 29 28 28 27 27 25 24 24 23 22 22 22 21 21 21 20 20 20 20 19 19 19 19 19 19 19 19 19 18 18 18 18 18 18 18 17 17 17 17 17 17
30 29 29 29 28 29 29 29 28 28 27 27 26 25 24 23 22 22 21 21 21 21 20 20 20 19 19 19 19 19 19 19 19 18 18 18 18 18 18 18 18 18 17 17 17 17 17 17 17
Wind_Speed
13 10 6 4 3 3 9 7 7 6 5 6 6 6 7 8 6 5 4 6 6 6 7 8 9 8 8 8 8 8 8 8 8 8 9 10 10 10 10 11 12 12 12 12 14 15 15 15 15
9 6 5 4 1 7 9 8 8 8 6 5 6 6 7 8 7 5 4 5 6 7 7 9 9 8 8 8 9 9 9 8 9 9 10 10 11 11 11 12 12 11 12 14 14 15 15 14 14
6 6 3 1 7 9 8 7 7 7 6 4 5 6 6 6 6 4 6 6 6 7 8 10 8 8 8 8 9 9 9 9 9 10 10 10 11 12 12 13 13 13 15 15 14 15 15 15 14
4 4 2 4 10 10 8 6 5 6 6 5 5 6 6 6 4 6 7 6 7 7 7 9 8 8 8 9 9 10 10 10 10 10 10 10 11 12 13 14 14 15 15 15 14 14 14 14 13
4 3 3 9 11 9 7 6 4 5 5 6 6 8 8 7 7 7 7 6 6 7 7 9 8 7 8 9 9 10 10 10 10 10 10 10 11 12 13 14 14 14 15 14 14 13 14 14 13
3 1 5 9 10 7 7 5 4 6 7 6 6 7 6 7 7 7 7 6 6 6 7 9 8 7 8 9 9 10 10 11 10 10 10 10 11 12 13 13 14 14 14 14 13 13 13 13 12
3 3 7 9 9 9 7 5 5 6 6 5 4 6 7 7 7 7 6 6 6 6 6 7 8 8 8 8 9 9 10 10 10 10 11 11 12 13 13 13 13 13 14 14 14 13 13 13 12
3 1 7 8 9 9 7 6 5 5 6 6 3 5 6 8 7 7 7 6 6 6 6 6 6 7 7 9 9 9 10 10 10 11 11 11 13 14 14 13 14 13 13 13 13 12 12 11 11
3 2 8 9 8 7 5 5 6 5 7 6 6 6 9 10 9 8 7 7 6 6 6 6 6 6 6 7 8 8 9 8 8 9 9 8 9 11 11 14 13 12 12 12 12 11 11 10 10
1 6 10 7 7 6 5 5 5 5 6 7 8 9 11 10 8 7 7 7 7 6 6 6 6 5 5 6 6 5 6 7 7 7 7 8 8 8 10 13 12 11 11 10 10 9 9 7 7
3 6 7 6 6 5 5 6 5 4 6 6 8 11 11 10 8 7 7 6 7 6 6 6 6 5 5 4 4 4 5 5 6 7 7 7 6 6 6 6 8 9 8 7 8 7 5 5 4
4 5 5 5 4 4 5 6 6 6 7 7 9 11 11 10 8 7 7 7 7 6 6 5 5 5 4 4 4 4 4 4 5 6 5 5 4 4 5 4 5 4 5 5 4 4 5 4 3
4 4 4 4 3 4 5 6 6 7 7 9 11 11 11 9 8 7 7 6 6 6 5 5 4 4 4 3 2 4 4 4 5 5 5 5 4 4 4 4 3 4 4 4 4 3 4 3 3
3 2 3 4 5 5 5 6 5 7 8 10 10 10 9 8 8 7 6 5 5 5 5 5 4 4 3 3 2 3 3 3 4 4 5 4 4 4 3 3 3 3 3 3 3 3 3 2 2
2 2 4 4 3 3 3 5 5 7 8 9 9 9 8 8 7 6 6 5 5 5 5 4 4 4 3 3 2 3 3 3 3 4 4 4 4 3 2 2 2 3 3 3 2 2 2 2 2
4 4 3 4 2 1 3 5 7 6 8 8 8 9 8 7 7 6 6 5 5 5 5 4 3 4 4 3 2 2 3 3 3 3 3 3 3 2 1 2 2 2 2 2 2 1 2 2 2
5 2 2 3 2 1 2 3 5 5 6 7 8 8 8 8 7 6 6 6 5 5 5 5 3 4 4 4 3 2 2 2 2 2 2 2 2 2 1 1 2 0 1 1 0 2 1 1 1
3 1 1 1 2 2 2 2 4 5 6 7 8 8 8 8 7 7 6 6 5 5 5 5 4 4 4 4 3 2 2 2 2 2 2 1 1 1 0 1 0 0 0 0 1 1 1 1 1
3 3 2 1 1 2 2 2 3 5 5 6 7 8 8 8 8 7 7 7 6 6 6 5 5 4 4 3 3 3 3 2 2 1 2 1 1 1 1 1 0 1 0 1 1 1 2 1 1
6 5 3 2 1 2 2 3 3 5 5 5 6 8 8 9 9 9 8 8 8 7 7 6 6 5 5 4 2 2 2 2 2 1 1 1 1 0 1 1 1 1 0 1 1 1 1 1 1
6 5 3 1 1 4 4 5 4 5 5 5 6 7 8 9 9 10 10 9 9 8 8 6 6 6 5 5 4 3 3 2 2 2 1 1 0 1 1 1 2 2 2 0 1 1 1 1 1
6 3 4 4 6 3 4 4 3 5 5 5 6 7 8 9 9 10 10 10 10 9 9 8 7 7 6 6 4 4 2 2 2 1 1 1 0 0 0 1 1 2 1 1 1 0 1 2 1
4 1 4 6 7 6 5 6 2 4 4 4 4 5 6 7 9 9 10 9 9 9 9 8 8 7 7 6 5 4 3 2 2 2 2 1 1 0 0 0 1 1 1 2 2 1 1 1 1
4 4 5 6 7 7 4 5 1 2 1 2 3 3 4 6 7 8 8 9 8 8 8 8 8 7 7 7 6 5 4 3 2 1 1 1 1 1 1 1 0 0 1 1 1 1 0 1 2
8 8 6 6 6 4 2 4 1 3 2 1 2 3 4 5 6 6 7 8 9 9 9 8 9 8 8 7 7 6 5 4 4 3 2 2 1 1 1 0 0 0 0 0 1 0 1 0 1
9 10 8 6 5 3 4 3 2 4 3 3 3 4 5 5 5 5 6 7 8 9 9 9 9 8 8 7 7 6 6 4 3 3 3 2 2 1 0 1 1 1 1 1 1 1 1 1 1
8 8 7 8 7 7 4 2 3 3 3 3 4 4 4 4 4 4 4 5 7 8 9 9 9 8 7 7 6 6 5 4 3 3 3 2 2 2 1 2 2 1 1 1 2 1 2 2 3
7 6 6 8 6 7 5 5 2 3 3 4 4 4 3 4 4 3 3 3 5 6 7 7 7 7 7 7 6 5 5 5 4 3 2 2 2 2 2 2 2 2 2 2 3 3 2 3 3
7 8 7 7 8 7 6 1 3 2 3 4 4 4 4 4 3 3 3 3 5 6 6 6 6 6 6 6 5 5 4 4 4 3 3 3 3 3 3 3 2 3 3 2 3 3 3 4 4
8 9 9 8 7 7 7 1 6 3 3 3 4 4 4 4 4 4 4 3 4 5 5 5 5 6 5 5 5 5 4 4 4 4 4 4 4 4 3 3 3 4 3 3 3 4 4 4 4
Wind_Direction
175 178 196 226 227 90 66 60 59 63 61 60 56 54 55 42 31 67 71 65 64 72 79 83 70 64 61 61 60 64 68 73 78 86 95 102 106 109 112 120 125 126 131 134 138 135 134 133 135
172 182 219 236 48 78 70 57 59 60 79 88 71 65 67 63 56 81 90 75 78 76 79 78 74 62 61 61 62 63 67 71 79 87 95 100 102 103 103 111 114 117 129 131 129 132 131 130 131
181 221 260 21 60 63 68 61 70 86 86 75 74 59 52 60 69 76 87 97 88 81 82 82 76 65 63 62 64 64 65 68 76 85 91 98 103 104 103 104 105 106 121 130 130 130 128 127 127
213 225 229 75 71 63 67 73 81 98 87 70 81 81 71 57 62 87 102 101 95 90 87 86 79 66 63 63 62 62 65 69 73 81 89 95 103 107 107 106 105 105 111 118 122 126 125 125 124
242 259 100 81 72 67 67 71 80 80 77 78 80 88 83 70 85 99 107 102 96 92 89 88 86 76 69 66 60 61 68 70 73 79 87 93 101 107 110 109 107 107 108 111 114 117 126 124 123
255 264 75 77 75 71 72 75 84 80 88 92 93 93 85 98 103 106 104 99 96 99 98 97 101 89 78 72 66 65 70 72 74 80 85 92 99 106 109 108 107 108 111 113 114 114 114 120 122
323 50 70 74 76 73 66 69 69 80 89 88 94 95 107 108 105 107 102 100 100 100 99 98 106 106 102 85 72 68 71 75 77 81 86 93 101 105 108 108 108 111 114 115 115 114 114 116 116
307 67 79 71 69 71 72 71 73 72 86 95 99 100 118 124 121 117 112 106 99 93 93 97 96 98 103 102 91 81 77 79 83 84 89 97 109 113 115 113 107 109 113 115 115 116 117 118 121
266 78 68 59 59 73 77 77 83 87 102 98 84 88 115 132 133 128 121 114 105 98 98 99 96 95 95 92 97 101 97 92 100 97 99 103 98 101 109 101 107 108 109 113 115 118 124 130 133
346 64 60 49 52 73 76 70 94 113 108 109 107 108 124 137 139 133 126 125 120 113 107 101 95 92 94 93 97 97 91 89 86 83 87 89 89 93 99 109 113 115 119 123 124 134 154 164 137
56 61 58 60 58 71 86 82 94 105 98 114 128 134 140 143 141 133 125 122 119 119 110 109 102 101 97 95 94 88 84 86 88 83 87 88 88 99 99 110 123 129 137 126 136 152 128 117 114
74 63 57 63 63 77 82 89 90 79 76 104 128 138 143 146 141 135 128 123 121 115 111 105 104 97 85 82 89 95 92 86 82 83 77 83 85 83 85 93 97 109 103 102 109 113 107 111 124
87 66 64 72 85 90 99 97 92 86 96 114 127 139 146 146 139 133 126 123 122 122 119 114 113 104 100 87 70 82 78 76 83 80 77 76 84 80 87 87 82 86 94 108 109 103 108 115 125
73 74 91 94 97 112 107 104 109 101 122 127 137 144 148 146 141 137 139 139 138 137 134 127 128 124 121 109 89 83 94 93 81 83 79 75 82 79 84 95 88 88 91 89 98 108 118 107 107
153 147 127 105 101 117 135 118 105 120 137 140 144 147 151 152 150 150 150 154 151 148 144 140 137 130 129 118 114 112 114 102 89 86 88 84 88 88 90 91 98 88 100 108 105 108 112 139 131
198 207 146 116 109 156 242 99 105 138 154 151 152 153 157 157 159 156 155 159 155 151 149 154 145 132 133 122 113 110 101 99 97 97 94 90 82 88 90 82 86 101 116 114 121 108 113 114 124
208 205 104 122 138 184 232 102 119 155 167 163 163 162 164 165 171 166 164 160 156 154 157 159 152 144 140 135 135 123 108 103 113 108 99 96 88 86 92 67 62 136 111 111 118 102 111 129 132
203 221 189 86 128 206 195 132 138 163 176 175 171 169 171 174 177 174 171 164 159 156 159 164 162 155 152 146 140 132 125 130 116 100 88 72 96 84 67 130 18 324 81 120 104 165 147 175 193
257 259 258 71 103 234 219 190 167 162 179 185 184 180 180 179 174 173 175 171 167 165 164 170 169 160 166 163 167 156 150 149 139 119 77 49 31 86 315 347 356 295 343 284 215 201 174 182 161
237 241 229 160 165 253 245 234 190 178 187 192 192 191 189 183 175 176 179 179 177 174 174 175 176 171 176 164 173 162 143 152 137 98 86 56 34 272 204 305 285 327 261 246 244 228 243 173 183
229 239 257 266 229 222 247 226 187 184 191 194 200 198 194 192 185 180 184 185 183 182 182 180 179 175 179 170 169 160 158 172 154 143 136 90 342 322 331 304 317 308 293 90 255 240 242 249 200
227 234 254 251 257 260 261 273 180 176 188 198 201 201 200 193 191 187 186 188 188 185 181 180 178 179 179 180 178 174 171 163 145 151 111 126 134 316 312 325 329 328 357 42 257 140 255 260 240
252 254 257 265 271 272 246 270 160 167 203 204 199 202 203 196 190 189 188 188 188 185 182 177 176 177 177 180 177 184 185 183 170 156 127 223 164 205 321 0 350 334 8 34 22 25 323 292 298
203 214 234 247 254 252 250 268 234 137 233 205 177 182 186 183 181 183 183 183 186 185 185 178 174 177 178 181 182 187 194 198 184 188 174 212 192 194 176 183 326 318 14 52 27 356 354 335 331
217 233 239 235 230 236 181 257 23 48 39 117 160 163 159 163 170 173 176 180 183 185 185 179 176 179 181 183 188 189 196 194 195 212 206 241 240 207 168 224 221 304 320 277 306 249 328 306 274
221 238 251 263 261 246 195 242 69 59 72 110 131 141 143 150 156 166 173 177 183 182 182 181 178 180 182 182 187 189 195 202 201 207 229 235 265 261 178 213 218 242 260 263 259 256 239 244 258
222 232 262 268 264 267 239 196 139 89 99 111 120 125 129 134 138 151 168 178 180 181 182 183 180 177 180 183 185 189 196 207 208 207 225 244 254 241 211 229 235 233 237 252 262 274 269 263 258
246 239 240 249 256 257 234 228 208 143 118 121 125 127 122 126 125 125 148 166 169 174 174 178 178 176 178 183 189 187 195 202 205 213 214 234 249 259 246 246 249 255 251 247 255 254 252 257 260
205 221 236 251 261 264 259 223 75 134 135 139 138 132 121 118 112 111 112 136 153 161 164 168 167 168 174 181 186 193 195 203 207 217 224 229 237 238 240 247 251 256 256 253 254 266 266 257 260
221 223 223 234 242 254 268 233 90 107 120 118 125 122 111 113 109 104 104 112 132 150 158 165 168 172 177 179 183 193 200 206 217 222 227 226 231 235 235 243 251 255 254 254 253 259 262 261 262
Height
1497 1497 1498 1500 1494 1489 1494 1491 1488 1490 1493 1497 1497 1496 1497 1499 1501 1510 1511 1509 1508 1507 1506 1504 1503 1501 1500 1499 1497 1496 1495 1494 1492 1491 1490 1490 1492 1493 1494 1495 1497 1498 1499 1500 1503 1507 1510 1513 1515
1498 1498 1500 1497 1489 1496 1498 1492 1492 1494 1497 1499 1499 1499 1499 1503 1507 1509 1510 1510 1510 1509 1508 1507 1505 1503 1502 1501 1499 1498 1497 1495 1494 1493 1493 1493 1494 1495 1496 1497 1498 1497 1497 1501 1506 1509 1512 1514 1516
1499 1499 1499 1489 1490 1496 1499 1494 1495 1497 1499 1499 1501 1502 1504 1507 1510 1511 1511 1511 1511 1511 1510 1508 1507 1506 1504 1503 1501 1500 1498 1497 1496 1495 1495 1496 1497 1498 1499 1500 1500 1499 1499 1504 1509 1511 1513 1515 1518
1500 1501 1496 1490 1495 1493 1493 1494 1496 1497 1499 1501 1501 1504 1508 1512 1512 1513 1512 1513 1513 1513 1513 1511 1509 1508 1507 1505 1503 1502 1500 1499 1498 1497 1497 1498 1499 1500 1501 1503 1504 1504 1505 1509 1511 1514 1516 1518 1520
1501 1497 1490 1493 1495 1493 1492 1495 1497 1497 1499 1502 1503 1505 1510 1514 1513 1514 1514 1514 1515 1515 1515 1513 1511 1510 1509 1507 1505 1504 1503 1501 1500 1500 1499 1500 1500 1502 1504 1506 1507 1509 1510 1512 1514 1516 1519 1521 1523
1500 1492 1492 1498 1497 1494 1494 1497 1497 1498 1501 1504 1505 1506 1512 1515 1515 1516 1516 1516 1516 1516 1516 1515 1513 1513 1512 1510 1508 1507 1505 1504 1503 1502 1501 1501 1502 1503 1506 1508 1511 1512 1514 1516 1518 1520 1522 1524 1526
1499 1491 1494 1494 1496 1495 1496 1498 1498 1499 1502 1505 1506 1507 1513 1516 1517 1517 1517 1518 1518 1518 1518 1518 1517 1515 1514 1513 1511 1510 1508 1507 1506 1505 1504 1503 1503 1506 1509 1512 1514 1516 1518 1520 1521 1523 1525 1527 1528
1499 1492 1492 1493 1495 1497 1498 1499 1501 1501 1504 1507 1508 1508 1513 1517 1517 1518 1518 1519 1520 1520 1520 1520 1520 1519 1518 1517 1515 1513 1512 1511 1510 1509 1509 1508 1508 1510 1513 1516 1518 1519 1521 1523 1525 1526 1528 1529 1531
1499 1493 1496 1495 1495 1497 1499 1500 1503 1504 1506 1508 1509 1511 1514 1517 1518 1519 1519 1520 1521 1521 1521 1522 1522 1521 1521 1520 1518 1517 1516 1515 1515 1515 1514 1514 1516 1517 1519 1521 1522 1523 1525 1526 1528 1529 1531 1532 1534
1497 1495 1497 1496 1495 1497 1499 1500 1502 1504 1505 1508 1511 1514 1516 1517 1518 1519 1519 1520 1522 1522 1523 1523 1524 1523 1523 1523 1522 1521 1521 1520 1519 1519 1519 1520 1520 1522 1524 1524 1525 1527 1528 1529 1530 1532 1533 1535 1537
1498 1497 1497 1498 1499 1499 1499 1501 1503 1502 1504 1508 1511 1514 1516 1518 1519 1520 1520 1521 1523 1524 1525 1525 1525 1525 1525 1525 1525 1524 1524 1523 1523 1523 1523 1524 1524 1526 1527 1528 1529 1530 1531 1532 1533 1535 1536 1537 1538
1500 1499 1500 1500 1501 1500 1500 1502 1503 1504 1507 1510 1512 1515 1517 1519 1520 1521 1522 1523 1524 1525 1526 1526 1527 1527 1526 1527 1527 1527 1527 1527 1527 1526 1526 1527 1528 1528 1529 1530 1532 1532 1533 1534 1535 1536 1537 1537 1538
1500 1500 1501 1501 1501 1501 1502 1503 1505 1507 1510 1512 1514 1516 1518 1519 1521 1523 1524 1525 1526 1527 1527 1528 1528 1528 1527 1527 1528 1529 1529 1530 1530 1529 1529 1529 1530 1531 1531 1532 1532 1534 1535 1535 1536 1537 1538 1538 1539
1501 1501 1501 1501 1501 1503 1502 1503 1505 1509 1511 1513 1515 1517 1519 1521 1522 1523 1525 1526 1527 1527 1528 1529 1529 1529 1529 1529 1529 1530 1531 1531 1532 1532 1532 1532 1533 1533 1533 1534 1534 1535 1536 1536 1537 1537 1538 1539 1539
1502 1500 1499 1500 1501 1502 1502 1504 1505 1510 1512 1514 1516 1518 1520 1522 1523 1524 1525 1527 1528 1528 1529 1529 1530 1530 1530 1531 1532 1533 1534 1534 1534 1534 1534 1534 1534 1534 1535 1536 1536 1536 1536 1537 1537 1538 1538 1539 1540
1499 1497 1499 1499 1500 1501 1501 1505 1506 1510 1511 1513 1515 1518 1520 1522 1523 1525 1526 1527 1528 1529 1529 1530 1531 1531 1531 1532 1532 1534 1535 1536 1536 1536 1536 1536 1536 1536 1536 1537 1537 1537 1537 1538 1538 1538 1539 1539 1539
1497 1499 1500 1499 1499 1499 1499 1503 1506 1509 1510 1512 1514 1517 1519 1521 1523 1525 1526 1527 1528 1529 1529 1530 1531 1532 1532 1533 1534 1535 1535 1536 1537 1537 1538 1537 1537 1537 1537 1537 1537 1537 1538 1537 1538 1538 1538 1538 1538
1500 1498 1499 1499 1497 1498 1499 1500 1503 1507 1508 1510 1513 1515 1518 1520 1522 1524 1525 1527 1528 1529 1529 1530 1531 1532 1533 1534 1535 1536 1536 1537 1538 1538 1538 1538 1538 1537 1538 1538 1537 1537 1537 1537 1536 1536 1536 1537 1538
1495 1498 1499 1497 1496 1498 1499 1500 1501 1505 1507 1508 1510 1513 1516 1518 1521 1523 1525 1526 1527 1528 1529 1530 1531 1532 1533 1534 1535 1536 1537 1538 1538 1539 1538 1538 1538 1537 1538 1538 1537 1537 1537 1536 1536 1536 1536 1537 1537
1496 1498 1498 1497 1496 1497 1498 1499 1498 1502 1505 1507 1509 1512 1514 1517 1519 1521 1523 1525 1526 1528 1529 1529 1531 1532 1533 1534 1535 1536 1537 1538 1539 1539 1538 1538 1538 1538 1538 1537 1537 1537 1536 1535 1535 1535 1536 1536 1537
1496 1497 1497 1498 1497 1495 1498 1499 1498 1499 1503 1506 1508 1510 1512 1514 1517 1519 1521 1523 1525 1527 1528 1529 1530 1531 1533 1534 1535 1536 1537 1538 1539 1538 1538 1538 1538 1537 1537 1537 1536 1536 1536 1535 1534 1534 1535 1536 1536
1498 1492 1494 1496 1498 1496 1497 1504 1497 1496 1500 1502 1505 1507 1509 1512 1514 1517 1520 1522 1523 1525 1527 1528 1529 1531 1532 1533 1535 1536 1537 1538 1538 1538 1538 1538 1537 1537 1537 1536 1536 1535 1535 1534 1534 1534 1535 1535 1536
1493 1493 1494 1494 1496 1497 1495 1500 1495 1494 1498 1499 1502 1505 1507 1509 1512 1515 1518 1520 1522 1524 1526 1527 1528 1530 1531 1532 1533 1535 1536 1537 1538 1538 1537 1537 1537 1536 1536 1536 1535 1535 1535 1534 1534 1534 1534 1535 1535
1493 1495 1495 1494 1493 1506 1498 1501 1500 1492 1495 1496 1500 1503 1506 1508 1511 1514 1516 1519 1521 1523 1525 1526 1527 1528 1530 1531 1532 1533 1535 1536 1536 1537 1537 1537 1537 1536 1536 1536 1535 1535 1535 1534 1533 1533 1534 1534 1533
1493 1498 1507 1509 1507 1504 1493 1498 1498 1492 1493 1496 1499 1502 1505 1507 1510 1512 1514 1516 1518 1520 1523 1524 1525 1526 1528 1530 1531 1532 1533 1534 1535 1536 1536 1536 1536 1536 1535 1535 1534 1534 1534 1534 1533 1533 1533 1533 1533
1491 1493 1508 1516 1511 1500 1496 1498 1493 1492 1495 1497 1499 1502 1504 1506 1508 1510 1512 1514 1516 1518 1520 1522 1523 1525 1527 1528 1529 1531 1532 1533 1534 1534 1535 1535 1535 1535 1534 1534 1534 1533 1533 1533 1533 1533 1533 1533 1532
1491 1490 1487 1494 1497 1503 1496 1493 1491 1492 1494 1497 1499 1501 1503 1506 1507 1509 1511 1513 1514 1516 1518 1520 1521 1523 1525 1527 1528 1529 1530 1531 1532 1533 1533 1534 1533 1534 1533 1533 1532 1532 1532 1532 1532 1532 1532 1532 1532
1487 1486 1490 1495 1510 1511 1501 1496 1493 1494 1494 1495 1498 1501 1504 1506 1507 1509 1510 1511 1513 1515 1516 1518 1520 1521 1523 1525 1526 1528 1529 1529 1530 1531 1531 1531 1531 1531 1531 1531 1531 1531 1531 1531 1531 1531 1530 1530 1530
1491 1492 1491 1490 1492 1504 1507 1499 1487 1491 1493 1495 1498 1501 1504 1505 1507 1508 1509 1511 1512 1513 1515 1517 1518 1520 1522 1523 1524 1526 1527 1528 1528 1529 1529 1529 1529 1529 1529 1529 1529 1529 1529 1529 1529 1529 1529 1528 1528
1484 1486 1489 1499 1501 1496 1499 1499 1489 1491 1493 1496 1499 1502 1505 1506 1507 1508 1509 1510 1511 1513 1515 1516 1517 1519 1520 1521 1522 1523 1524 1525 1526 1526 1526 1527 1527 1527 1527 1527 1527 1527 1527 1527 1527 1527 1527 1526 1526